Location: Park Creek Village Mobile Home Park
(38.2885°N, 122.4714°W)
Time: 00:21:02
(UTC+00:00)

Cosmos 1634 Rocket - Pass Details

Date: 14 December 2019
Orbit: 960 x 992 km, 82.9° (Epoch: 17 January)

Event Time Altitude Azimuth Distance (km) Brightness Sun altitude
Rises 13:18:51 0° 197° (SSW) 3,651 7.0 -22.8°
Reaches altitude 10° 13:21:24 10° 202° (SSW) 2,704 6.2 -22.3°
Maximum altitude 13:27:27 56° 280° (W) 1,133 4.0 -21.1°
Drops below altitude 10° 13:33:32 10° 358° (N) 2,704 6.2 -20.0°
Sets 13:36:06 0° 3° (N) 3,652 6.9 -19.5°
